| time (UTC) | temp F | wind direction | speed MPH | gust MPH | rain 1hr in | rain 24hr in | rain mn in | humidity % | barometer mb |
| 20260902124550 | 79 | 155 | 0.0 | 1.0 | 0.00 | 0.00 | 0.00 | 77 | 1016.1 |
| 20260902123043 | 0 | 0.0 | 0.0 | 0.00 | 0.00 | 0.00 | 1016.0 | ||
| 20260902121533 | 0 | 0.0 | 0.0 | 0.00 | 0.00 | 0.00 | 1015.8 | ||
| 20260902120029 | 0 | 0.0 | 0.0 | 0.00 | 0.00 | 0.00 | 1015.6 | ||
| 20260902114527 | 0 | 0.0 | 0.0 | 0.00 | 0.00 | 0.00 | 1015.4 | ||
| 20260902113019 | 0 | 0.0 | 0.0 | 0.00 | 0.00 | 0.00 | 1015.4 | ||
| 20260902111515 | 0 | 0.0 | 0.0 | 0.00 | 0.00 | 0.00 | 1015.2 | ||
| 20260902110015 | 0 | 0.0 | 0.0 | 0.00 | 0.00 | 0.00 | 1015.1 | ||
| 20260902104507 | 0 | 0.0 | 0.0 | 0.00 | 0.00 | 0.00 | 1015.0 | ||
| 20260902103004 | 78 | 192 | 0.0 | 4.0 | 0.00 | 0.00 | 0.00 | 76 | 1014.9 |
| 20260902101505 | 80 | 140 | 1.0 | 5.0 | 0.00 | 0.00 | 0.00 | 74 | 1014.9 |
| 20260902100003 | 81 | 138 | 1.0 | 4.0 | 0.00 | 0.00 | 0.00 | 73 | 1014.9 |
| 20260902094501 | 82 | 161 | 1.0 | 5.0 | 0.00 | 0.00 | 0.00 | 71 | 1014.9 |
| 20260902093101 | 82 | 152 | 2.0 | 6.0 | 0.00 | 0.00 | 0.00 | 70 | 1014.8 |
| 20260902091558 | 82 | 209 | 4.0 | 7.0 | 0.00 | 0.00 | 0.00 | 70 | 1014.7 |
| 20260902090053 | 82 | 143 | 4.0 | 9.0 | 0.00 | 0.00 | 0.00 | 70 | 1014.6 |
| 20260902084553 | 81 | 150 | 3.0 | 7.0 | 0.00 | 0.00 | 0.00 | 71 | 1014.6 |
| 20260902083048 | 81 | 161 | 1.0 | 7.0 | 0.00 | 0.00 | 0.00 | 72 | 1014.4 |
| 20260902081550 | 80 | 192 | 2.0 | 5.0 | 0.00 | 0.00 | 0.00 | 73 | 1014.4 |
| 20260902080044 | 79 | 140 | 2.0 | 6.0 | 0.00 | 0.00 | 0.00 | 73 | 1014.5 |
| 20260902074543 | 78 | 131 | 1.0 | 2.0 | 0.00 | 0.00 | 0.00 | 74 | 1014.5 |
| 20260902073042 | 78 | 126 | 1.0 | 5.0 | 0.00 | 0.00 | 0.00 | 74 | 1014.5 |
| 20260902071543 | 78 | 128 | 0.0 | 1.0 | 0.00 | 0.00 | 0.00 | 73 | 1014.6 |
| 20260902070041 | 78 | 136 | 1.0 | 2.0 | 0.00 | 0.00 | 0.00 | 73 | 1014.5 |
| 20260902064544 | 78 | 136 | 0.0 | 0.0 | 0.00 | 0.00 | 0.00 | 74 | 1014.6 |
| 20260902063040 | 78 | 136 | 0.0 | 1.0 | 0.00 | 0.00 | 0.00 | 74 | 1014.6 |
| 20260902061546 | 79 | 136 | 0.0 | 1.0 | 0.00 | 0.00 | 0.00 | 73 | 1014.7 |
| 20260902060044 | 79 | 129 | 1.0 | 4.0 | 0.00 | 0.00 | 0.00 | 73 | 1014.7 |
| 20260902054538 | 79 | 134 | 0.0 | 2.0 | 0.00 | 0.00 | 0.00 | 72 | 1014.7 |
| 20260902053038 | 79 | 150 | 1.0 | 4.0 | 0.00 | 0.00 | 0.00 | 72 | 1014.6 |
| 20260902051533 | 77 | 137 | 1.0 | 2.0 | 0.00 | 0.00 | 0.00 | 79 | 1014.6 |
| 20260902050029 | 76 | 144 | 0.0 | 1.0 | 0.00 | 0.00 | 0.00 | 81 | 1014.5 |
| 20260902044526 | 78 | 134 | 0.0 | 0.0 | 0.00 | 0.00 | 0.00 | 79 | 1014.3 |
| 20260902043028 | 78 | 134 | 0.0 | 0.0 | 0.00 | 0.00 | 0.00 | 80 | 1014.3 |
| 20260902041528 | 79 | 253 | 0.0 | 0.0 | 0.00 | 0.00 | 0.00 | 78 | 1014.2 |
| 20260902040025 | 79 | 253 | 0.0 | 0.0 | 0.00 | 0.00 | 0.00 | 77 | 1014.2 |
| 20260902034524 | 80 | 112 | 0.0 | 0.0 | 0.00 | 0.00 | 0.00 | 75 | 1014.0 |
| 20260902033035 | 81 | 112 | 0.0 | 0.0 | 0.00 | 0.00 | 0.00 | 75 | 1014.1 |
| 20260902031528 | 81 | 112 | 0.0 | 0.0 | 0.00 | 0.00 | 0.00 | 74 | 1014.0 |
| 20260902030023 | 83 | 112 | 0.0 | 0.0 | 0.00 | 0.00 | 0.00 | 71 | 1013.8 |
| 20260902024523 | 83 | 112 | 0.0 | 0.0 | 0.00 | 0.00 | 0.00 | 71 | 1013.6 |
| 20260902023022 | 82 | 111 | 0.0 | 0.0 | 0.00 | 0.00 | 0.00 | 72 | 1013.5 |
| 20260902021524 | 83 | 112 | 0.0 | 1.0 | 0.00 | 0.00 | 0.00 | 72 | 1013.4 |
| 20260902020021 | 85 | 132 | 0.0 | 0.0 | 0.00 | 0.00 | 0.00 | 66 | 1013.1 |
| 20260902014533 | 86 | 132 | 0.0 | 0.0 | 0.00 | 0.00 | 0.00 | 66 | 1013.1 |
| 20260902013021 | 87 | 133 | 0.0 | 0.0 | 0.00 | 0.00 | 0.00 | 64 | 1012.8 |
| 20260902011533 | 88 | 132 | 0.0 | 0.0 | 0.00 | 0.00 | 0.00 | 61 | 1012.9 |
| 20260902010031 | 91 | 200 | 0.0 | 0.0 | 0.00 | 0.00 | 0.00 | 58 | 1012.9 |
| 20260902004523 | 94 | 200 | 0.0 | 0.0 | 0.00 | 0.00 | 0.00 | 54 | 1012.9 |
| 20260902003018 | 96 | 200 | 0.0 | 0.0 | 0.00 | 0.00 | 0.00 | 52 | 1012.9 |
| 20260902001518 | 98 | 200 | 0.0 | 0.0 | 0.00 | 0.00 | 0.00 | 48 | 1012.9 |
| 20260902000021 | 99 | 138 | 0.0 | 2.0 | 0.00 | 0.00 | 0.00 | 47 | 1013.0 |
| 20260901234538 | 99 | 205 | 0.0 | 5.0 | 0.00 | 0.00 | 0.00 | 46 | 1013.0 |
| 20260901233014 | 100 | 151 | 1.0 | 6.0 | 0.00 | 0.00 | 0.00 | 46 | 1013.1 |
| 20260901231513 | 100 | 196 | 1.0 | 8.0 | 0.00 | 0.00 | 0.00 | 45 | 1013.2 |
| 20260901230012 | 100 | 132 | 2.0 | 7.0 | 0.00 | 0.00 | 0.00 | 45 | 1013.2 |
| 20260901224511 | 100 | 140 | 4.0 | 8.0 | 0.00 | 0.00 | 0.00 | 46 | 1013.2 |
| 20260901223014 | 101 | 143 | 3.0 | 7.0 | 0.00 | 0.00 | 0.00 | 45 | 1013.3 |
| 20260901221519 | 101 | 146 | 6.0 | 10.0 | 0.00 | 0.00 | 0.00 | 44 | 1013.3 |
| 20260901220010 | 102 | 221 | 3.0 | 8.0 | 0.00 | 0.00 | 0.00 | 44 | 1013.3 |
| 20260901214509 | 101 | 200 | 0.0 | 8.0 | 0.00 | 0.00 | 0.00 | 44 | 1013.4 |
| 20260901213006 | 101 | 148 | 5.0 | 10.0 | 0.00 | 0.00 | 0.00 | 44 | 1013.4 |
| 20260901211510 | 101 | 215 | 5.0 | 9.0 | 0.00 | 0.00 | 0.00 | 45 | 1013.5 |
| 20260901210003 | 101 | 294 | 2.0 | 6.0 | 0.00 | 0.00 | 0.00 | 45 | 1013.7 |
| 20260901204503 | 100 | 251 | 2.0 | 9.0 | 0.00 | 0.00 | 0.00 | 46 | 1014.0 |
| 20260901203108 | 102 | 147 | 5.0 | 8.0 | 0.00 | 0.00 | 0.00 | 44 | 1014.0 |
| 20260901201558 | 101 | 219 | 5.0 | 11.0 | 0.00 | 0.00 | 0.00 | 45 | 1014.3 |
| 20260901194604 | 101 | 223 | 2.0 | 10.0 | 0.00 | 0.00 | 0.00 | 46 | 1014.6 |
| 20260901193053 | 100 | 136 | 3.0 | 10.0 | 0.00 | 0.00 | 0.00 | 46 | 1014.7 |
| 20260901191550 | 100 | 175 | 5.0 | 11.0 | 0.00 | 0.00 | 0.00 | 47 | 1014.9 |
| 20260901184547 | 101 | 202 | 4.0 | 9.0 | 0.00 | 0.00 | 0.00 | 46 | 1015.2 |
| 20260901183048 | 100 | 254 | 2.0 | 8.0 | 0.00 | 0.00 | 0.00 | 47 | 1015.4 |
| 20260901181550 | 99 | 202 | 2.0 | 8.0 | 0.00 | 0.00 | 0.00 | 48 | 1015.6 |
| 20260901180040 | 98 | 180 | 6.0 | 11.0 | 0.00 | 0.00 | 0.00 | 49 | 1015.9 |
| 20260901174538 | 98 | 164 | 5.0 | 10.0 | 0.00 | 0.00 | 0.00 | 49 | 1016.2 |
| 20260901173050 | 97 | 198 | 2.0 | 10.0 | 0.00 | 0.00 | 0.00 | 51 | 1016.4 |
| 20260901171535 | 97 | 194 | 4.0 | 7.0 | 0.00 | 0.00 | 0.00 | 51 | 1016.6 |
| 20260901170029 | 95 | 302 | 2.0 | 9.0 | 0.00 | 0.00 | 0.00 | 54 | 1016.9 |
| 20260901164526 | 94 | 190 | 5.0 | 11.0 | 0.00 | 0.00 | 0.00 | 55 | 1017.0 |
| 20260901163023 | 93 | 234 | 3.0 | 10.0 | 0.00 | 0.00 | 0.00 | 57 | 1017.1 |
| 20260901161520 | 92 | 232 | 3.0 | 11.0 | 0.00 | 0.00 | 0.00 | 58 | 1017.2 |
| 20260901160017 | 91 | 298 | 5.0 | 9.0 | 0.00 | 0.00 | 0.00 | 59 | 1017.2 |
| 20260901154513 | 91 | 230 | 4.0 | 9.0 | 0.00 | 0.00 | 0.00 | 60 | 1017.2 |
| 20260901153015 | 89 | 284 | 3.0 | 9.0 | 0.00 | 0.00 | 0.00 | 60 | 1017.2 |
| 20260901151509 | 89 | 159 | 5.0 | 10.0 | 0.00 | 0.00 | 0.00 | 61 | 1017.1 |
| 20260901150006 | 88 | 216 | 2.0 | 6.0 | 0.00 | 0.00 | 0.00 | 63 | 1017.2 |
| 20260901144506 | 87 | 133 | 0.0 | 4.0 | 0.00 | 0.00 | 0.00 | 65 | 1017.3 |
| 20260901143058 | 85 | 279 | 1.0 | 8.0 | 0.00 | 0.00 | 0.00 | 66 | 1017.4 |
| 20260901141604 | 84 | 240 | 1.0 | 4.0 | 0.00 | 0.00 | 0.00 | 66 | 1017.5 |
| 20260901140053 | 83 | 209 | 0.0 | 2.0 | 0.00 | 0.00 | 0.00 | 67 | 1017.4 |
| 20260901134547 | 82 | 153 | 1.0 | 6.0 | 0.00 | 0.00 | 0.00 | 68 | 1017.4 |
| 20260901133046 | 80 | 150 | 1.0 | 5.0 | 0.00 | 0.00 | 0.00 | 70 | 1017.4 |
| 20260901131541 | 80 | 150 | 0.0 | 2.0 | 0.00 | 0.00 | 0.00 | 71 | 1017.3 |
| 20260901130039 | 79 | 137 | 0.0 | 2.0 | 0.00 | 0.00 | 0.00 | 71 | 1017.2 |